This is the latest recevied weather packets stored in our database for station/object OM0XA-10. If no packets are shown the sender has not sent any weather packets the latest 1 day(s).
| Time | Temp. | Humidity | Pressure | Rain* | Wind** | Luminosity | Snow |
|---|---|---|---|---|---|---|---|
| 1778084680 | 25.56° C | 38% | 1013.9 hPa | - | - | - | - |
| 1778083780 | 25.56° C | 38% | 1014.1 hPa | - | - | - | - |
| 1778082880 | 25.56° C | 38% | 1014.2 hPa | - | - | - | - |
| 1778076580 | 26.67° C | 36% | 1014.1 hPa | - | - | - | - |
| 1778074779 | 25.56° C | 35% | 1014.1 hPa | - | - | - | - |
| 1778073879 | 25.56° C | 35% | 1014.2 hPa | - | - | - | - |
| 1778067578 | 26.11° C | 37% | 1014 hPa | - | - | - | - |
| 1778066678 | 25.56° C | 38% | 1014.1 hPa | - | - | - | - |
| 1778065778 | 25.56° C | 38% | 1014.2 hPa | - | - | - | - |
| 1778064878 | 25.56° C | 38% | 1014.1 hPa | - | - | - | - |
| 1778063077 | 25° C | 39% | 1014 hPa | - | - | - | - |
| 1778061277 | 25° C | 38% | 1014 hPa | - | - | - | - |
| 1778060377 | 25° C | 38% | 1013.7 hPa | - | - | - | - |
| 1778059477 | 25° C | 38% | 1013.7 hPa | - | - | - | - |
| 1778058577 | 25° C | 38% | 1013.9 hPa | - | - | - | - |
| 1778057677 | 25° C | 38% | 1013.6 hPa | - | - | - | - |
| 1778056777 | 25° C | 39% | 1013.7 hPa | - | - | - | - |
| 1778055877 | 24.44° C | 39% | 1013.8 hPa | - | - | - | - |
| 1778050476 | 23.89° C | 41% | 1013.7 hPa | - | - | - | - |
| 1778049576 | 23.89° C | 39% | 1013.8 hPa | - | - | - | - |
| 1778048676 | 23.33° C | 40% | 1013.7 hPa | - | - | - | - |
| 1778047776 | 23.33° C | 40% | 1013.7 hPa | - | - | - | - |
| 1778046876 | 23.33° C | 39% | 1013.6 hPa | - | - | - | - |
| 1778042375 | 23.33° C | 39% | 1013.5 hPa | - | - | - | - |
| 1778041475 | 23.33° C | 39% | 1013.4 hPa | - | - | - | - |
* Rain since midnight (hover to see other rain measurements)
** Current wind speed in m/s (hover to see current wind gust speed)